When you browse on this site, cookies collect data to enhance your experience and personalize the content and advertising you see.
Visit our Privacy Policy to learn more. By continuing to use the site, you agree to this use of cookies and data.
  • In Österreich
  • Länderverzeichnis
  • Für 7 Tage
  • Wassertemperatur
  • Satellitenkarten
  • Wetterkarte
  • News
  • Widgets
  • user-avatar
    Anmelden

    Stündliche Wetter Copperas Cove

    Heute, 19 Juni, Mittwoch

    Zeit Temperatur Niederschläge Wind Luftdruck Luftfeuchtigkeit
    00:00 +27°C° 0 mm 5 m/S 730 mmHg 79%
    01:00 +26°C° 0 mm 5 m/S 730 mmHg 81%
    02:00 +26°C° 0 mm 6 m/S 729 mmHg 83%
    03:00 +26°C° 0 mm 5 m/S 729 mmHg 85%
    04:00 +25°C° 0 mm 5 m/S 729 mmHg 88%
    05:00 +25°C° 0 mm 4 m/S 729 mmHg 90%
    06:00 +27°C° 0 mm 5 m/S 729 mmHg 85%
    07:00 +29°C° 0 mm 6 m/S 730 mmHg 79%
    08:00 +30°C° 0 mm 7 m/S 730 mmHg 74%
    09:00 +33°C° 0 mm 7 m/S 729 mmHg 66%
    10:00 +35°C° 0 mm 7 m/S 729 mmHg 59%
    11:00 +36°C° 0 mm 7 m/S 729 mmHg 51%
    12:00 +38°C° 0 mm 7 m/S 728 mmHg 49%
    13:00 +39°C° 0 mm 8 m/S 728 mmHg 46%
    14:00 +40°C° 0 mm 8 m/S 727 mmHg 43%
    15:00 +39°C° 0 mm 7 m/S 727 mmHg 45%
    16:00 +38°C° 0 mm 6 m/S 726 mmHg 47%
    17:00 +37°C° 0 mm 5 m/S 725 mmHg 48%
    18:00 +35°C° 0.6 mm 5 m/S 726 mmHg 53%
    19:00 +33°C° 0.6 mm 5 m/S 726 mmHg 58%
    20:00 +29°C° 0.6 mm 4 m/S 726 mmHg 63%
    21:00 +29°C° 0.2 mm 5 m/S 727 mmHg 69%
    22:00 +28°C° 0.2 mm 5 m/S 727 mmHg 74%
    23:00 +28°C° 0.2 mm 6 m/S 727 mmHg 80%

    Morgen, 20 Juni, Donnerstag

    Zeit Temperatur Niederschläge Wind Luftdruck Luftfeuchtigkeit
    00:00 +28°C° 0 mm 5 m/S 727 mmHg 82%
    01:00 +27°C° 0 mm 5 m/S 727 mmHg 84%
    02:00 +27°C° 0 mm 5 m/S 727 mmHg 86%
    03:00 +27°C° 0 mm 5 m/S 727 mmHg 86%
    04:00 +27°C° 0 mm 5 m/S 728 mmHg 87%
    05:00 +27°C° 0 mm 5 m/S 728 mmHg 87%
    06:00 +28°C° 0 mm 6 m/S 728 mmHg 81%
    07:00 +30°C° 0 mm 7 m/S 728 mmHg 75%
    08:00 +32°C° 0 mm 7 m/S 728 mmHg 69%
    09:00 +34°C° 0 mm 7 m/S 728 mmHg 62%
    10:00 +36°C° 0 mm 7 m/S 729 mmHg 56%
    11:00 +39°C° 0 mm 7 m/S 729 mmHg 49%
    12:00 +39°C° 0 mm 7 m/S 728 mmHg 46%
    13:00 +40°C° 0 mm 7 m/S 728 mmHg 43%
    14:00 +41°C° 0 mm 7 m/S 727 mmHg 39%
    15:00 +40°C° 0 mm 5 m/S 727 mmHg 42%
    16:00 +40°C° 0 mm 4 m/S 727 mmHg 45%
    17:00 +38°C° 0 mm 3 m/S 727 mmHg 47%
    18:00 +34°C° 1 mm 4 m/S 728 mmHg 57%
    19:00 +30°C° 1 mm 4 m/S 728 mmHg 68%
    20:00 +26°C° 1 mm 5 m/S 728 mmHg 78%
    21:00 +26°C° 1.2 mm 5 m/S 729 mmHg 82%
    22:00 +26°C° 1.2 mm 6 m/S 729 mmHg 85%
    23:00 +27°C° 1.2 mm 6 m/S 729 mmHg 89%

    übermorgen, 21 Juni, Freitag

    Zeit Temperatur Niederschläge Wind Luftdruck Luftfeuchtigkeit
    00:00 +27°C° 0 mm 7 m/S 729 mmHg 88%
    01:00 +26°C° 0 mm 8 m/S 728 mmHg 88%
    02:00 +26°C° 0 mm 9 m/S 728 mmHg 88%
    03:00 +26°C° 0 mm 8 m/S 728 mmHg 88%
    04:00 +26°C° 0 mm 7 m/S 729 mmHg 89%
    05:00 +26°C° 0 mm 6 m/S 729 mmHg 89%
    06:00 +27°C° 0 mm 7 m/S 729 mmHg 83%
    07:00 +29°C° 0 mm 7 m/S 730 mmHg 77%
    08:00 +31°C° 0 mm 8 m/S 730 mmHg 72%
    09:00 +33°C° 0 mm 8 m/S 730 mmHg 66%
    10:00 +34°C° 0 mm 8 m/S 730 mmHg 61%
    11:00 +37°C° 0 mm 8 m/S 730 mmHg 55%
    12:00 +38°C° 0 mm 8 m/S 730 mmHg 52%
    13:00 +38°C° 0 mm 8 m/S 730 mmHg 49%
    14:00 +39°C° 0 mm 8 m/S 729 mmHg 46%
    15:00 +38°C° 0 mm 8 m/S 729 mmHg 50%
    16:00 +36°C° 0 mm 7 m/S 729 mmHg 53%
    17:00 +35°C° 0 mm 7 m/S 728 mmHg 56%
    18:00 +34°C° 0 mm 7 m/S 729 mmHg 62%
    19:00 +32°C° 0 mm 8 m/S 730 mmHg 69%
    20:00 +29°C° 0 mm 8 m/S 730 mmHg 75%
    21:00 +29°C° 0 mm 8 m/S 730 mmHg 78%
    22:00 +28°C° 0 mm 7 m/S 731 mmHg 81%
    23:00 +27°C° 0 mm 7 m/S 731 mmHg 84%

    22 Juni, Samstag

    Zeit Temperatur Niederschläge Wind Luftdruck Luftfeuchtigkeit
    00:00 +27°C° 0 mm 6 m/S 731 mmHg 85%
    01:00 +27°C° 0 mm 6 m/S 731 mmHg 86%
    02:00 +27°C° 0 mm 6 m/S 731 mmHg 87%
    03:00 +27°C° 0 mm 7 m/S 731 mmHg 84%
    04:00 +28°C° 0 mm 7 m/S 731 mmHg 80%
    05:00 +28°C° 0 mm 8 m/S 731 mmHg 77%
    06:00 +29°C° 0 mm 8 m/S 732 mmHg 75%
    07:00 +29°C° 0 mm 8 m/S 732 mmHg 73%
    08:00 +31°C° 0 mm 8 m/S 732 mmHg 71%
    09:00 +32°C° 0 mm 8 m/S 732 mmHg 66%
    10:00 +34°C° 0 mm 8 m/S 732 mmHg 60%
    11:00 +35°C° 0 mm 8 m/S 732 mmHg 55%
    12:00 +35°C° 0 mm 8 m/S 732 mmHg 55%
    13:00 +35°C° 0 mm 8 m/S 731 mmHg 55%
    14:00 +35°C° 0 mm 8 m/S 731 mmHg 55%
    15:00 +35°C° 0 mm 8 m/S 731 mmHg 57%
    16:00 +35°C° 0 mm 8 m/S 731 mmHg 58%
    17:00 +34°C° 0 mm 7 m/S 731 mmHg 60%
    18:00 +33°C° 0 mm 7 m/S 730 mmHg 64%
    19:00 +31°C° 0 mm 8 m/S 730 mmHg 69%
    20:00 +29°C° 0 mm 8 m/S 731 mmHg 73%
    21:00 +29°C° 0 mm 8 m/S 731 mmHg 76%
    22:00 +28°C° 0 mm 9 m/S 731 mmHg 80%
    23:00 +27°C° 0 mm 9 m/S 731 mmHg 83%

    23 Juni, Sonntag

    Zeit Temperatur Niederschläge Wind Luftdruck Luftfeuchtigkeit
    00:00 +27°C° 0 mm 9 m/S 730 mmHg 83%
    01:00 +27°C° 0 mm 8 m/S 730 mmHg 83%
    02:00 +27°C° 0 mm 8 m/S 730 mmHg 83%
    03:00 +27°C° 0 mm 8 m/S 730 mmHg 83%
    04:00 +27°C° 0 mm 7 m/S 730 mmHg 84%
    05:00 +27°C° 0 mm 7 m/S 730 mmHg 84%
    06:00 +27°C° 0 mm 7 m/S 730 mmHg 81%
    07:00 +28°C° 0 mm 8 m/S 731 mmHg 77%
    08:00 +29°C° 0 mm 8 m/S 731 mmHg 74%
    09:00 +31°C° 0 mm 8 m/S 731 mmHg 68%
    10:00 +32°C° 0 mm 8 m/S 731 mmHg 63%
    11:00 +34°C° 0 mm 8 m/S 731 mmHg 58%
    12:00 +35°C° 0 mm 8 m/S 730 mmHg 53%
    13:00 +37°C° 0 mm 8 m/S 730 mmHg 48%
    14:00 +38°C° 0 mm 8 m/S 729 mmHg 44%
    15:00 +38°C° 0 mm 8 m/S 729 mmHg 47%
    16:00 +36°C° 0 mm 7 m/S 728 mmHg 51%
    17:00 +35°C° 0 mm 7 m/S 728 mmHg 55%
    18:00 +34°C° 0 mm 8 m/S 728 mmHg 58%
    19:00 +33°C° 0 mm 9 m/S 728 mmHg 62%
    20:00 +31°C° 0 mm 9 m/S 728 mmHg 65%
    21:00 +31°C° 0 mm 9 m/S 729 mmHg 71%
    22:00 +29°C° 0 mm 8 m/S 729 mmHg 76%
    23:00 +28°C° 0 mm 7 m/S 729 mmHg 82%

    24 Juni, Montag

    Zeit Temperatur Niederschläge Wind Luftdruck Luftfeuchtigkeit
    00:00 +28°C° 0.2 mm 7 m/S 729 mmHg 83%
    01:00 +27°C° 0.2 mm 6 m/S 729 mmHg 85%
    02:00 +27°C° 0.2 mm 6 m/S 729 mmHg 86%
    03:00 +27°C° 0.1 mm 5 m/S 729 mmHg 86%
    04:00 +27°C° 0.1 mm 5 m/S 730 mmHg 85%
    05:00 +27°C° 0.1 mm 5 m/S 730 mmHg 84%
    06:00 +28°C° 0 mm 5 m/S 730 mmHg 80%
    07:00 +29°C° 0 mm 6 m/S 731 mmHg 76%
    08:00 +30°C° 0 mm 6 m/S 731 mmHg 71%
    09:00 +32°C° 0 mm 6 m/S 731 mmHg 68%
    10:00 +32°C° 0 mm 6 m/S 731 mmHg 66%
    11:00 +33°C° 0 mm 6 m/S 731 mmHg 63%
    12:00 +34°C° 0 mm 5 m/S 731 mmHg 59%
    13:00 +35°C° 0 mm 5 m/S 730 mmHg 54%
    14:00 +37°C° 0 mm 5 m/S 730 mmHg 50%
    15:00 +36°C° 0.1 mm 4 m/S 729 mmHg 51%
    16:00 +36°C° 0.1 mm 4 m/S 729 mmHg 53%
    17:00 +35°C° 0.1 mm 4 m/S 729 mmHg 54%
    18:00 +33°C° 2.9 mm 5 m/S 729 mmHg 63%
    19:00 +30°C° 2.9 mm 6 m/S 730 mmHg 73%
    20:00 +28°C° 2.9 mm 6 m/S 730 mmHg 82%
    21:00 +27°C° 0.9 mm 6 m/S 731 mmHg 83%
    22:00 +27°C° 0.9 mm 6 m/S 731 mmHg 84%
    23:00 +26°C° 0.9 mm 5 m/S 732 mmHg 85%
    Mehr zeigen